St. Petersburg, FL

5:57 AM EDT on September 23, 2017 (GMT -0400)
Whitted

Weather History for KSPG - August, 2013

Change the Weather History Date:

Thursday, August 29, 2013

  Actual Average Record
Temperature  
Mean Temperature 86 °F -  
Max Temperature 91 °F 89 °F 94 °F (1987)
Min Temperature 81 °F 76 °F 71 °F (1967)
Cooling Degree Days 21    
Growing Degree Days 36 (Base 50)    
Moisture  
Dew Point 72 °F    
Average Humidity 67    
Maximum Humidity 74    
Minimum Humidity 52    
Precipitation  
Precipitation 0.00 in - - ()
Sea Level Pressure  
Sea Level Pressure 29.99 in    
Wind  
Wind Speed 7 mph (East)    
Max Wind Speed 12 mph    
Max Gust Speed -    
Visibility 10 miles    
Events      
Averages and records for this station are not official NWS values.
T = Trace of Precipitation, MM = Missing Value Source: NWS Daily Summary

Daily Weather History Graph

Daily Weather History Graph

Search for Another Location

Airport or City:

Trip Planner

Search our weather history database for the weather conditions in past years. The results will help you decide how hot, cold, wet, or windy it might be!

Date:

Astronomy

Aug. 29, 2013 Rise Set
Actual Time 7:08 AM EDT 7:54 PM EDT
Civil Twilight 6:44 AM EDT 8:18 PM EDT
Nautical Twilight 6:15 AM EDT 8:46 PM EDT
Astronomical Twilight 5:47 AM EDT 9:14 PM EDT
Moon 1:13 AM EDT (8/29) 3:06 PM EDT (8/29)
Length of Visible Light 13h 34m
Length of Day
12h 46m
Last Quarter, 38% of the Moon is Illuminated
Aug 29
Last Quarter
Sep 5
New
Sep 12
First Quarter
Sep 19
Full
Sep 26
Last Quarter

Hourly Weather History & Observations

Time (EDT) Temp. Heat Index Dew Point Humidity Pressure Visibility Wind Dir Wind Speed Gust Speed Precip Events Conditions
12:53 AM 82.9 °F 87.0 °F 70.0 °F 65% 30.03 in 10.0 mi SE 8.1 mph - N/A   Clear
1:53 AM 82.9 °F 86.5 °F 69.1 °F 63% 30.02 in 10.0 mi SE 8.1 mph - N/A   Clear
2:53 AM 81.0 °F 84.4 °F 70.0 °F 69% 30.02 in 10.0 mi SE 5.8 mph - N/A   Partly Cloudy
3:53 AM 81.0 °F 84.4 °F 70.0 °F 69% 30.01 in 10.0 mi ESE 5.8 mph - N/A   Mostly Cloudy
4:53 AM 81.0 °F 84.9 °F 71.1 °F 72% 30.00 in 10.0 mi ESE 4.6 mph - N/A   Overcast
5:53 AM 81.0 °F 84.9 °F 71.1 °F 72% 29.99 in 10.0 mi ESE 3.5 mph - N/A   Partly Cloudy
6:53 AM 81.0 °F 85.2 °F 72.0 °F 74% 30.00 in 10.0 mi SE 4.6 mph - N/A   Clear
7:53 AM 81.0 °F 85.2 °F 72.0 °F 74% 30.01 in 10.0 mi Calm Calm - N/A   Clear
8:53 AM 82.0 °F 87.4 °F 73.0 °F 74% 30.02 in 10.0 mi ESE 3.5 mph - N/A   Clear
9:53 AM 82.9 °F 88.8 °F 73.0 °F 72% 30.03 in 10.0 mi ESE 4.6 mph - N/A   Clear
10:53 AM 84.9 °F 92.1 °F 73.9 °F 69% 30.03 in 10.0 mi East 4.6 mph - N/A   Clear
11:53 AM 88.0 °F 95.6 °F 73.0 °F 61% 30.02 in 10.0 mi NNE 9.2 mph - N/A   Partly Cloudy
12:53 PM 90.0 °F 96.9 °F 72.0 °F 55% 30.01 in 10.0 mi NNE 10.4 mph - N/A   Partly Cloudy
1:53 PM 91.0 °F 97.6 °F 71.1 °F 52% 30.00 in 10.0 mi NNE 10.4 mph - N/A   Partly Cloudy
2:53 PM 88.0 °F 96.5 °F 73.9 °F 63% 29.99 in 10.0 mi SSW 9.2 mph - N/A   Mostly Cloudy
3:53 PM 86.0 °F 92.2 °F 72.0 °F 63% 29.95 in 10.0 mi SW 5.8 mph - N/A   Overcast
4:53 PM 87.1 °F 95.4 °F 73.9 °F 65% 29.94 in 10.0 mi SW 6.9 mph - N/A   Overcast
5:53 PM 89.1 °F 97.0 °F 73.0 °F 59% 29.93 in 10.0 mi North 11.5 mph - N/A   Mostly Cloudy
6:53 PM 88.0 °F 96.5 °F 73.9 °F 63% 29.94 in 10.0 mi NNW 10.4 mph - N/A   Mostly Cloudy
7:53 PM 87.1 °F 94.5 °F 73.0 °F 63% 29.94 in 10.0 mi North 10.4 mph - N/A   Partly Cloudy
8:53 PM 84.9 °F 92.1 °F 73.9 °F 69% 29.96 in 10.0 mi North 10.4 mph - N/A   Mostly Cloudy
9:53 PM 84.9 °F 93.3 °F 75.0 °F 72% 29.96 in 10.0 mi North 5.8 mph - N/A   Partly Cloudy
10:53 PM 84.9 °F 92.1 °F 73.9 °F 69% 29.98 in 10.0 mi Calm Calm - N/A   Clear
11:53 PM 84.0 °F 91.9 °F 75.0 °F 74% 29.99 in 10.0 mi SSW 3.5 mph - N/A   Overcast